| Back to River Map | <<< Previous Forecast Point | | | Next Forecast Point >>> | Printer Version | Graph Version |  |
|
CHEROKEE CANAL - RICHVALE (RCVC1)
| Latitude: 39.47º N | Longitude: 121.74º W | Elevation: 106 Feet | | Forecast Type: Unofficial Location |
| Location: Butte County in California | Bulletin Group: Lower Sacramento | River Group: Lower Sacramento |
| Issuance Time: | May 04 2026 at 7:31 AM PDT | Next Issuance: | May 05 2026 at 9:00 AM PDT
| |
| Action/Monitor: 99.3 Feet | Minor Flood: 103.6 Feet | Moderate Flood: N/A | Major Flood: N/A |
# Tabular Observed and Forecast Hydrograph Information
#
# Location: Cherokee Canal - Richvale (RCVC1)
#
# File Generation Time: 05/04/2026 at 07:34 AM PDT
# Data Interval: 1 Hour
#
# Most Recent Date & Time of Maximum Observed: 04/29/2026 at 07:00 AM PDT
# Maximum Observed Stage: 95.36 Feet
# Maximum Observed Flow: 28 cfs
#
# Earliest Date & Time of Maximum Forecast: 05/05/2026 at 11:00 AM PDT
# Maximum Forecast Stage: 95.25 Feet
# Maximum Forecast Flow: 22 cfs
#
# OBSERVED
#
# Date & Time (Local) Stage (Feet) Flow (cfs) Trend Observed Status
# ---------------------------------------------------------------------------------
04/29/2026 07 AM PDT 95.36 28 Normal
04/29/2026 08 AM PDT 95.35 28 - Normal
04/29/2026 09 AM PDT 95.35 28 0 Normal
04/29/2026 10 AM PDT 95.34 27 - Normal
04/29/2026 11 AM PDT 95.34 27 0 Normal
04/29/2026 12 PM PDT 95.34 27 0 Normal
04/29/2026 01 PM PDT 95.33 27 - Normal
04/29/2026 02 PM PDT 95.33 27 0 Normal
04/29/2026 03 PM PDT 95.32 26 - Normal
04/29/2026 04 PM PDT 95.32 26 0 Normal
04/29/2026 05 PM PDT 95.31 26 - Normal
04/29/2026 06 PM PDT 95.30 25 - Normal
04/29/2026 07 PM PDT 95.30 25 0 Normal
04/29/2026 08 PM PDT 95.30 25 0 Normal
04/29/2026 09 PM PDT 95.30 25 0 Normal
04/29/2026 10 PM PDT 95.30 25 0 Normal
04/29/2026 11 PM PDT 95.31 26 + Normal
04/30/2026 12 AM PDT 95.31 26 0 Normal
04/30/2026 01 AM PDT 95.32 26 + Normal
04/30/2026 02 AM PDT 95.32 26 0 Normal
04/30/2026 03 AM PDT 95.32 26 0 Normal
04/30/2026 04 AM PDT 95.33 27 + Normal
04/30/2026 05 AM PDT 95.33 27 0 Normal
04/30/2026 06 AM PDT 95.33 27 0 Normal
04/30/2026 07 AM PDT 95.33 27 0 Normal
04/30/2026 08 AM PDT 95.33 27 0 Normal
04/30/2026 09 AM PDT 95.33 27 0 Normal
04/30/2026 10 AM PDT 95.32 26 - Normal
04/30/2026 11 AM PDT 95.32 26 0 Normal
04/30/2026 12 PM PDT 95.31 26 - Normal
04/30/2026 01 PM PDT 95.30 25 - Normal
04/30/2026 02 PM PDT 95.30 25 0 Normal
04/30/2026 03 PM PDT 95.29 24 - Normal
04/30/2026 04 PM PDT 95.29 24 0 Normal
04/30/2026 05 PM PDT 95.28 24 - Normal
04/30/2026 06 PM PDT 95.27 23 - Normal
04/30/2026 07 PM PDT 95.27 23 0 Normal
04/30/2026 08 PM PDT 95.26 22 - Normal
04/30/2026 09 PM PDT 95.26 22 0 Normal
04/30/2026 10 PM PDT 95.25 22 - Normal
04/30/2026 11 PM PDT 95.25 22 0 Normal
05/01/2026 12 AM PDT 95.25 22 0 Normal
05/01/2026 01 AM PDT 95.26 22 + Normal
05/01/2026 02 AM PDT 95.27 23 + Normal
05/01/2026 03 AM PDT 95.28 24 + Normal
05/01/2026 04 AM PDT 95.29 24 + Normal
05/01/2026 05 AM PDT 95.29 24 0 Normal
05/01/2026 06 AM PDT 95.29 24 0 Normal
05/01/2026 07 AM PDT 95.29 24 0 Normal
05/01/2026 08 AM PDT 95.29 24 0 Normal
05/01/2026 09 AM PDT 95.29 24 0 Normal
05/01/2026 10 AM PDT 95.29 24 0 Normal
05/01/2026 11 AM PDT 95.28 24 - Normal
05/01/2026 12 PM PDT 95.28 24 0 Normal
05/01/2026 01 PM PDT 95.28 24 0 Normal
05/01/2026 02 PM PDT 95.27 23 - Normal
05/01/2026 03 PM PDT 95.27 23 0 Normal
05/01/2026 04 PM PDT 95.26 22 - Normal
05/01/2026 05 PM PDT 95.26 22 0 Normal
05/01/2026 06 PM PDT 95.26 22 0 Normal
05/01/2026 07 PM PDT 95.25 22 - Normal
05/01/2026 08 PM PDT 95.25 22 0 Normal
05/01/2026 09 PM PDT 95.24 21 - Normal
05/01/2026 10 PM PDT 95.24 21 0 Normal
05/01/2026 11 PM PDT 95.23 21 - Normal
05/02/2026 12 AM PDT 95.23 21 0 Normal
05/02/2026 01 AM PDT 95.23 21 0 Normal
05/02/2026 02 AM PDT 95.22 20 - Normal
05/02/2026 03 AM PDT 95.22 20 0 Normal
05/02/2026 04 AM PDT 95.22 20 0 Normal
05/02/2026 05 AM PDT 95.22 20 0 Normal
05/02/2026 06 AM PDT 95.22 20 0 Normal
05/02/2026 07 AM PDT 95.21 20 - Normal
05/02/2026 08 AM PDT 95.21 20 0 Normal
05/02/2026 09 AM PDT 95.21 20 0 Normal
05/02/2026 10 AM PDT 95.21 20 0 Normal
05/02/2026 11 AM PDT 95.20 19 - Normal
05/02/2026 12 PM PDT 95.20 19 0 Normal
05/02/2026 01 PM PDT 95.19 19 - Normal
05/02/2026 02 PM PDT 95.18 18 - Normal
05/02/2026 03 PM PDT 95.18 18 0 Normal
05/02/2026 04 PM PDT 95.17 18 - Normal
05/02/2026 05 PM PDT 95.17 18 0 Normal
05/02/2026 06 PM PDT 95.17 18 0 Normal
05/02/2026 07 PM PDT 95.16 17 - Normal
05/02/2026 08 PM PDT 95.15 17 - Normal
05/02/2026 09 PM PDT 95.15 17 0 Normal
05/02/2026 10 PM PDT 95.15 17 0 Normal
05/02/2026 11 PM PDT 95.14 16 - Normal
05/03/2026 12 AM PDT 95.14 16 0 Normal
05/03/2026 01 AM PDT 95.14 16 0 Normal
05/03/2026 02 AM PDT 95.14 16 0 Normal
05/03/2026 03 AM PDT 95.14 16 0 Normal
05/03/2026 04 AM PDT 95.13 16 - Normal
05/03/2026 05 AM PDT 95.13 16 0 Normal
05/03/2026 06 AM PDT 95.13 16 0 Normal
05/03/2026 07 AM PDT 95.13 16 0 Normal
05/03/2026 08 AM PDT 95.13 16 0 Normal
05/03/2026 09 AM PDT 95.13 16 0 Normal
05/03/2026 10 AM PDT 95.13 16 0 Normal
05/03/2026 11 AM PDT 95.13 16 0 Normal
05/03/2026 12 PM PDT 95.13 16 0 Normal
05/03/2026 01 PM PDT 95.12 16 - Normal
05/03/2026 02 PM PDT 95.12 16 0 Normal
05/03/2026 03 PM PDT 95.12 16 0 Normal
05/03/2026 04 PM PDT 95.11 15 - Normal
05/03/2026 05 PM PDT 95.11 15 0 Normal
05/03/2026 06 PM PDT 95.11 15 0 Normal
05/03/2026 07 PM PDT 95.10 15 - Normal
05/03/2026 08 PM PDT 95.10 15 0 Normal
05/03/2026 09 PM PDT 95.10 15 0 Normal
05/03/2026 10 PM PDT 95.09 14 - Normal
05/03/2026 11 PM PDT 95.09 14 0 Normal
05/04/2026 12 AM PDT 95.09 14 0 Normal
05/04/2026 01 AM PDT 95.09 14 0 Normal
05/04/2026 02 AM PDT 95.09 14 0 Normal
05/04/2026 03 AM PDT 95.09 14 0 Normal
05/04/2026 04 AM PDT 95.09 14 0 Normal
05/04/2026 05 AM PDT 95.09 14 0 Normal
05/04/2026 06 AM PDT 95.09 14 0 Normal
05/04/2026 07 AM PDT 95.10 15 + Normal
#
# FORECAST
#
# Date & Time (Local) Stage (Feet) Flow (cfs) Trend Forecast Status
# ---------------------------------------------------------------------------------
05/04/2026 08 AM PDT 95.09 14 Normal
05/04/2026 09 AM PDT 95.09 14 0 Normal
05/04/2026 10 AM PDT 95.09 14 0 Normal
05/04/2026 11 AM PDT 95.08 14 - Normal
05/04/2026 12 PM PDT 95.08 14 0 Normal
05/04/2026 01 PM PDT 95.07 13 - Normal
05/04/2026 02 PM PDT 95.05 12 - Normal
05/04/2026 03 PM PDT 95.04 12 - Normal
05/04/2026 04 PM PDT 95.03 11 - Normal
05/04/2026 05 PM PDT 95.03 11 0 Normal
05/04/2026 06 PM PDT 95.03 11 0 Normal
05/04/2026 07 PM PDT 95.04 12 + Normal
05/04/2026 08 PM PDT 95.06 13 + Normal
05/04/2026 09 PM PDT 95.07 13 + Normal
05/04/2026 10 PM PDT 95.08 14 + Normal
05/04/2026 11 PM PDT 95.09 14 + Normal
05/05/2026 12 AM PDT 95.09 14 0 Normal
05/05/2026 01 AM PDT 95.09 14 0 Normal
05/05/2026 02 AM PDT 95.09 14 0 Normal
05/05/2026 03 AM PDT 95.08 14 - Normal
05/05/2026 04 AM PDT 95.08 14 0 Normal
05/05/2026 05 AM PDT 95.08 14 0 Normal
05/05/2026 06 AM PDT 95.10 15 + Normal
05/05/2026 07 AM PDT 95.14 16 + Normal
05/05/2026 08 AM PDT 95.18 18 + Normal
05/05/2026 09 AM PDT 95.22 20 + Normal
05/05/2026 10 AM PDT 95.24 21 + Normal
05/05/2026 11 AM PDT 95.25 22 + Normal
05/05/2026 12 PM PDT 95.25 22 0 Normal
05/05/2026 01 PM PDT 95.22 20 - Normal
05/05/2026 02 PM PDT 95.20 19 - Normal
05/05/2026 03 PM PDT 95.16 17 - Normal
05/05/2026 04 PM PDT 95.13 16 - Normal
05/05/2026 05 PM PDT 95.09 14 - Normal
05/05/2026 06 PM PDT 95.08 14 - Normal
05/05/2026 07 PM PDT 95.06 13 - Normal
05/05/2026 08 PM PDT 95.04 12 - Normal
05/05/2026 09 PM PDT 95.03 11 - Normal
05/05/2026 10 PM PDT 95.02 11 - Normal
05/05/2026 11 PM PDT 95.01 10 - Normal
05/06/2026 12 AM PDT 95.00 10 - Normal
05/06/2026 01 AM PDT 94.99 10 - Normal
05/06/2026 02 AM PDT 94.99 10 0 Normal
05/06/2026 03 AM PDT 94.98 9 - Normal
05/06/2026 04 AM PDT 94.98 9 0 Normal
05/06/2026 05 AM PDT 94.98 9 0 Normal
05/06/2026 06 AM PDT 94.97 9 - Normal
05/06/2026 07 AM PDT 94.97 9 0 Normal
05/06/2026 08 AM PDT 94.97 9 0 Normal
05/06/2026 09 AM PDT 94.97 9 0 Normal
05/06/2026 10 AM PDT 94.97 9 0 Normal
05/06/2026 11 AM PDT 94.97 9 0 Normal
05/06/2026 12 PM PDT 94.97 9 0 Normal
05/06/2026 01 PM PDT 94.97 9 0 Normal
05/06/2026 02 PM PDT 94.97 9 0 Normal
05/06/2026 03 PM PDT 94.97 9 0 Normal
05/06/2026 04 PM PDT 94.97 9 0 Normal
05/06/2026 05 PM PDT 94.97 9 0 Normal
05/06/2026 06 PM PDT 94.96 9 - Normal
05/06/2026 07 PM PDT 94.96 9 0 Normal
05/06/2026 08 PM PDT 94.96 9 0 Normal
05/06/2026 09 PM PDT 94.96 9 0 Normal
05/06/2026 10 PM PDT 94.96 9 0 Normal
05/06/2026 11 PM PDT 94.96 9 0 Normal
05/07/2026 12 AM PDT 94.96 9 0 Normal
05/07/2026 01 AM PDT 94.96 9 0 Normal
05/07/2026 02 AM PDT 94.96 9 0 Normal
05/07/2026 03 AM PDT 94.96 9 0 Normal
05/07/2026 04 AM PDT 94.96 9 0 Normal
05/07/2026 05 AM PDT 94.96 9 0 Normal
05/07/2026 06 AM PDT 94.96 9 0 Normal
05/07/2026 07 AM PDT 94.96 9 0 Normal
05/07/2026 08 AM PDT 94.96 9 0 Normal
05/07/2026 09 AM PDT 94.96 9 0 Normal
05/07/2026 10 AM PDT 94.96 9 0 Normal
05/07/2026 11 AM PDT 94.96 9 0 Normal
05/07/2026 12 PM PDT 94.96 9 0 Normal
05/07/2026 01 PM PDT 94.96 9 0 Normal
05/07/2026 02 PM PDT 94.96 9 0 Normal
05/07/2026 03 PM PDT 94.95 8 - Normal
05/07/2026 04 PM PDT 94.95 8 0 Normal
05/07/2026 05 PM PDT 94.95 8 0 Normal
05/07/2026 06 PM PDT 94.95 8 0 Normal
05/07/2026 07 PM PDT 94.95 8 0 Normal
05/07/2026 08 PM PDT 94.95 8 0 Normal
05/07/2026 09 PM PDT 94.95 8 0 Normal
05/07/2026 10 PM PDT 94.95 8 0 Normal
05/07/2026 11 PM PDT 94.95 8 0 Normal
05/08/2026 12 AM PDT 94.95 8 0 Normal
05/08/2026 01 AM PDT 94.95 8 0 Normal
05/08/2026 02 AM PDT 94.95 8 0 Normal
05/08/2026 03 AM PDT 94.95 8 0 Normal
05/08/2026 04 AM PDT 94.95 8 0 Normal
05/08/2026 05 AM PDT 94.95 8 0 Normal
05/08/2026 06 AM PDT 94.95 8 0 Normal
05/08/2026 07 AM PDT 94.95 8 0 Normal
05/08/2026 08 AM PDT 94.95 8 0 Normal
05/08/2026 09 AM PDT 94.95 8 0 Normal
05/08/2026 10 AM PDT 94.95 8 0 Normal
05/08/2026 11 AM PDT 94.95 8 0 Normal
05/08/2026 12 PM PDT 94.95 8 0 Normal
05/08/2026 01 PM PDT 94.95 8 0 Normal
05/08/2026 02 PM PDT 94.95 8 0 Normal
05/08/2026 03 PM PDT 94.95 8 0 Normal
05/08/2026 04 PM PDT 94.95 8 0 Normal
05/08/2026 05 PM PDT 94.95 8 0 Normal
05/08/2026 06 PM PDT 94.95 8 0 Normal
05/08/2026 07 PM PDT 94.94 8 - Normal
05/08/2026 08 PM PDT 94.94 8 0 Normal
05/08/2026 09 PM PDT 94.94 8 0 Normal
05/08/2026 10 PM PDT 94.94 8 0 Normal
05/08/2026 11 PM PDT 94.94 8 0 Normal
05/09/2026 12 AM PDT 94.94 8 0 Normal
05/09/2026 01 AM PDT 94.94 8 0 Normal
05/09/2026 02 AM PDT 94.94 8 0 Normal
05/09/2026 03 AM PDT 94.94 8 0 Normal
05/09/2026 04 AM PDT 94.94 8 0 Normal
05/09/2026 05 AM PDT 94.94 8 0 Normal
#
# NOTE 1: Stages are rounded to the nearest hundredth (.01) of a foot.
# NOTE 2: Flows are rounded to the nearest (1) cfs.
# NOTE 3: Trends are determined using hourly change in unrounded stage and flow.
# NOTE 4: Maximum Values are determined using unrounded stage and flow.
|